ZSHLZ FAPE-FAPE

Flight info

Callsign ZSHLZ
Flight time 0h 39m
Altitude 1500
Route FAPE DCT SEAVIEW DCT GAMTOOS DCT SEAVIEW DCT FAPE
Aircraft UH1/L-VGD/C

Departure

Time 2026-04-26 10:07
Airport Chief Dawid Stuurman International Airport (FAPE)

Arrival

Time 2026-04-26 10:46
Airport Chief Dawid Stuurman International Airport (FAPE)
Time Latitude Longitude Altitude Speed Heading
2026-04-26 09:54 -33.98002 25.62155 191 ft 0 kts 349°
2026-04-26 10:04 -33.97987 25.62169 234 ft 10 kts 122°
2026-04-26 10:04 -33.98108 25.62452 333 ft 82 kts 105°
2026-04-26 10:04 -33.98347 25.63191 361 ft 104 kts 123°
2026-04-26 10:05 -33.98861 25.63890 316 ft 117 kts 143°
2026-04-26 10:05 -33.99541 25.64362 332 ft 106 kts 164°
2026-04-26 10:05 -34.00241 25.64291 356 ft 100 kts 207°
2026-04-26 10:05 -34.00713 25.63743 456 ft 96 kts 230°
2026-04-26 10:06 -34.01098 25.63016 516 ft 105 kts 240°
2026-04-26 10:06 -34.01412 25.62214 615 ft 107 kts 248°
2026-04-26 10:06 -34.01644 25.61300 589 ft 113 kts 250°
2026-04-26 10:06 -34.01840 25.60404 718 ft 110 kts 255°
2026-04-26 10:07 -34.01925 25.59501 886 ft 109 kts 262°
2026-04-26 10:07 -34.01907 25.58576 926 ft 112 kts 275°
2026-04-26 10:07 -34.01778 25.57632 912 ft 112 kts 274°
2026-04-26 10:07 -34.01667 25.56734 826 ft 118 kts 272°
2026-04-26 10:08 -34.01532 25.55751 854 ft 112 kts 277°
2026-04-26 10:08 -34.01355 25.54932 1224 ft 67 kts 298°
2026-04-26 10:08 -34.01121 25.54242 970 ft 107 kts 267°
2026-04-26 10:08 -34.01230 25.53357 815 ft 105 kts 252°
2026-04-26 10:09 -34.01378 25.52522 793 ft 97 kts 250°
2026-04-26 10:09 -34.01461 25.51706 702 ft 111 kts 260°
2026-04-26 10:09 -34.01538 25.50767 727 ft 109 kts 258°
2026-04-26 10:09 -34.01596 25.49844 851 ft 112 kts 261°
2026-04-26 10:10 -34.01622 25.48908 962 ft 112 kts 265°
2026-04-26 10:10 -34.01603 25.47948 977 ft 117 kts 266°
2026-04-26 10:10 -34.01602 25.46938 929 ft 124 kts 264°
2026-04-26 10:10 -34.01648 25.45899 837 ft 122 kts 259°
2026-04-26 10:11 -34.01738 25.44900 797 ft 117 kts 261°
2026-04-26 10:11 -34.01718 25.43960 872 ft 112 kts 270°
2026-04-26 10:11 -34.01629 25.43039 846 ft 118 kts 276°
2026-04-26 10:11 -34.01550 25.42057 596 ft 110 kts 260°
2026-04-26 10:12 -34.01572 25.41153 525 ft 108 kts 266°
2026-04-26 10:12 -34.01469 25.40309 769 ft 102 kts 281°
2026-04-26 10:12 -34.01375 25.39424 798 ft 113 kts 270°
2026-04-26 10:12 -34.01510 25.38447 615 ft 123 kts 251°
2026-04-26 10:13 -34.01699 25.37433 458 ft 125 kts 258°
2026-04-26 10:13 -34.01636 25.36386 411 ft 128 kts 279°
2026-04-26 10:13 -34.01318 25.35381 433 ft 126 kts 288°
2026-04-26 10:13 -34.00932 25.34451 492 ft 123 kts 297°
2026-04-26 10:14 -34.00479 25.33592 567 ft 122 kts 294°
2026-04-26 10:14 -34.00124 25.32658 589 ft 124 kts 288°
2026-04-26 10:14 -33.99696 25.31765 617 ft 125 kts 297°
2026-04-26 10:14 -33.99267 25.30885 633 ft 124 kts 289°
2026-04-26 10:15 -33.98979 25.29862 503 ft 131 kts 281°
2026-04-26 10:15 -33.98725 25.28823 502 ft 126 kts 281°
2026-04-26 10:15 -33.98385 25.27863 545 ft 127 kts 300°
2026-04-26 10:15 -33.98044 25.26886 446 ft 129 kts 277°
2026-04-26 10:16 -33.97813 25.25864 488 ft 127 kts 278°
2026-04-26 10:16 -33.97592 25.24830 482 ft 127 kts 280°
2026-04-26 10:16 -33.97356 25.23801 400 ft 130 kts 277°
2026-04-26 10:16 -33.97148 25.22687 125 ft 139 kts 277°
2026-04-26 10:17 -33.96966 25.21609 177 ft 124 kts 275°
2026-04-26 10:17 -33.96756 25.20590 162 ft 125 kts 277°
2026-04-26 10:17 -33.96584 25.19571 191 ft 124 kts 274°
2026-04-26 10:17 -33.96439 25.18557 232 ft 122 kts 274°
2026-04-26 10:18 -33.96324 25.17547 314 ft 120 kts 271°
2026-04-26 10:18 -33.96190 25.16543 354 ft 125 kts 275°
2026-04-26 10:18 -33.96107 25.15517 415 ft 124 kts 268°
2026-04-26 10:18 -33.96084 25.14445 253 ft 134 kts 262°
2026-04-26 10:19 -33.96138 25.13340 182 ft 129 kts 263°
2026-04-26 10:19 -33.96147 25.12286 209 ft 122 kts 263°
2026-04-26 10:19 -33.96168 25.11278 294 ft 120 kts 261°
2026-04-26 10:19 -33.96206 25.10270 321 ft 120 kts 260°
2026-04-26 10:20 -33.96213 25.09291 457 ft 116 kts 273°
2026-04-26 10:20 -33.96156 25.08647 364 ft 127 kts 274°
2026-04-26 10:20 -33.95991 25.07172 96 ft 120 kts 256°
2026-04-26 10:20 -33.96092 25.06432 120 ft 72 kts 257°
2026-04-26 10:21 -33.96054 25.05831 190 ft 73 kts 272°
2026-04-26 10:21 -33.96047 25.05251 159 ft 64 kts 240°
2026-04-26 10:21 -33.96221 25.04839 111 ft 47 kts 212°
2026-04-26 10:21 -33.96191 25.04771 74 ft 24 kts 120°
2026-04-26 10:22 -33.96243 25.04668 90 ft 27 kts 195°
2026-04-26 10:22 -33.96273 25.04743 6 ft 6 kts 43°
2026-04-26 10:22 -33.96270 25.04751 -1 ft 0 kts 47°
2026-04-26 10:24 -33.96311 25.04734 91 ft 41 kts 229°
2026-04-26 10:24 -33.96670 25.04983 55 ft 101 kts 103°
2026-04-26 10:25 -33.96683 25.05884 117 ft 114 kts 91°
2026-04-26 10:25 -33.96612 25.06854 153 ft 119 kts 86°
2026-04-26 10:25 -33.96608 25.07824 299 ft 112 kts 95°
2026-04-26 10:25 -33.96683 25.08758 356 ft 111 kts 101°
2026-04-26 10:26 -33.96882 25.09615 588 ft 100 kts 110°
2026-04-26 10:26 -33.97146 25.10393 696 ft 111 kts 120°
2026-04-26 10:26 -33.97345 25.11375 402 ft 127 kts 69°
2026-04-26 10:26 -33.96927 25.12250 419 ft 121 kts 66°
2026-04-26 10:27 -33.96611 25.13219 269 ft 126 kts 72°
2026-04-26 10:27 -33.96438 25.14161 401 ft 114 kts 86°
2026-04-26 10:27 -33.96405 25.15174 310 ft 123 kts 92°
2026-04-26 10:27 -33.96422 25.16237 146 ft 128 kts 90°
2026-04-26 10:28 -33.96436 25.16914 228 ft 117 kts 96°
2026-04-26 10:28 -33.96696 25.18191 219 ft 119 kts 124°
2026-04-26 10:28 -33.97034 25.18666 353 ft 109 kts 110°
2026-04-26 10:28 -33.96981 25.19660 152 ft 129 kts 81°
2026-04-26 10:29 -33.96924 25.20694 177 ft 117 kts 96°
2026-04-26 10:29 -33.96824 25.21682 182 ft 124 kts 62°
2026-04-26 10:29 -33.96238 25.22335 191 ft 97 kts 308°
2026-04-26 10:29 -33.95598 25.22625 42 ft 118 kts 29°
2026-04-26 10:30 -33.95109 25.22716 69 ft 114 kts 320°
2026-04-26 10:30 -33.94683 25.21936 84 ft 113 kts 271°
2026-04-26 10:30 -33.94361 25.21103 61 ft 119 kts 316°
2026-04-26 10:30 -33.93572 25.20822 104 ft 119 kts 338°
2026-04-26 10:31 -33.93009 25.21026 178 ft 98 kts 48°
2026-04-26 10:31 -33.92788 25.20666 284 ft 66 kts 235°
2026-04-26 10:31 -33.93272 25.20677 97 ft 96 kts 183°
2026-04-26 10:31 -33.93872 25.20802 78 ft 90 kts 172°
2026-04-26 10:32 -33.94479 25.21196 127 ft 107 kts 134°
2026-04-26 10:32 -33.94722 25.22090 43 ft 115 kts 100°
2026-04-26 10:32 -33.95185 25.22746 61 ft 100 kts 161°
2026-04-26 10:32 -33.95802 25.22377 25 ft 106 kts 221°
2026-04-26 10:33 -33.96328 25.22337 125 ft 82 kts 186°
2026-04-26 10:33 -33.96802 25.22067 96 ft 99 kts 150°
2026-04-26 10:33 -33.97157 25.22819 249 ft 108 kts 107°
2026-04-26 10:33 -33.97474 25.23658 389 ft 111 kts 120°
2026-04-26 10:34 -33.97843 25.24484 489 ft 108 kts 120°
2026-04-26 10:34 -33.98188 25.25223 786 ft 97 kts 122°
2026-04-26 10:34 -33.98597 25.25929 827 ft 117 kts 127°
2026-04-26 10:34 -33.99064 25.26771 795 ft 121 kts 120°
2026-04-26 10:35 -33.99464 25.27615 944 ft 114 kts 124°
2026-04-26 10:35 -33.99903 25.28364 1150 ft 113 kts 128°
2026-04-26 10:35 -34.00377 25.29208 1133 ft 128 kts 116°
2026-04-26 10:35 -34.00800 25.30219 964 ft 142 kts 111°
2026-04-26 10:36 -34.01085 25.31327 850 ft 137 kts 105°
2026-04-26 10:36 -34.01377 25.32416 748 ft 131 kts 108°
2026-04-26 10:36 -34.01663 25.33382 910 ft 121 kts 110°
2026-04-26 10:36 -34.01969 25.34312 1078 ft 116 kts 109°
2026-04-26 10:37 -34.02241 25.35230 1295 ft 112 kts 108°
2026-04-26 10:37 -34.02611 25.36062 1550 ft 114 kts 115°
2026-04-26 10:37 -34.02917 25.36954 1751 ft 120 kts 111°
2026-04-26 10:37 -34.03260 25.37956 1707 ft 136 kts 108°
2026-04-26 10:38 -34.03546 25.38970 1823 ft 128 kts 103°
2026-04-26 10:38 -34.03613 25.40015 1412 ft 125 kts 76°
2026-04-26 10:38 -34.03497 25.41036 1081 ft 119 kts 75°
2026-04-26 10:38 -34.03386 25.42002 820 ft 120 kts 79°
2026-04-26 10:39 -34.03255 25.43009 560 ft 119 kts 82°
2026-04-26 10:39 -34.03275 25.44007 620 ft 125 kts 99°
2026-04-26 10:39 -34.03415 25.45093 664 ft 126 kts 97°
2026-04-26 10:39 -34.03462 25.46094 957 ft 115 kts 95°
2026-04-26 10:40 -34.03591 25.47053 1097 ft 121 kts 103°
2026-04-26 10:40 -34.03836 25.48065 1180 ft 128 kts 104°
2026-04-26 10:40 -34.04075 25.49056 1398 ft 122 kts 106°
2026-04-26 10:40 -34.04318 25.50045 1480 ft 129 kts 102°
2026-04-26 10:41 -34.04522 25.51121 1420 ft 136 kts 100°
2026-04-26 10:41 -34.04695 25.52264 1150 ft 134 kts 83°
2026-04-26 10:41 -34.04474 25.53310 811 ft 126 kts 58°
2026-04-26 10:41 -34.04254 25.54292 492 ft 115 kts 96°
2026-04-26 10:42 -34.04314 25.55175 398 ft 101 kts 95°
2026-04-26 10:42 -34.04409 25.55967 363 ft 96 kts 105°
2026-04-26 10:42 -34.04550 25.56754 336 ft 94 kts 98°
2026-04-26 10:42 -34.04484 25.57515 379 ft 92 kts 80°
2026-04-26 10:43 -34.04219 25.58159 438 ft 84 kts 33°
2026-04-26 10:43 -34.03652 25.58303 438 ft 83 kts 338°
2026-04-26 10:43 -34.03130 25.58064 452 ft 82 kts 333°
2026-04-26 10:43 -34.02518 25.58047 498 ft 98 kts 11°
2026-04-26 10:44 -34.02142 25.58735 509 ft 109 kts 75°
2026-04-26 10:44 -34.01957 25.59646 504 ft 114 kts 71°
2026-04-26 10:44 -34.01532 25.60395 573 ft 108 kts 44°
2026-04-26 10:44 -34.01032 25.61057 670 ft 103 kts 43°
2026-04-26 10:45 -34.00445 25.61622 577 ft 117 kts 41°
2026-04-26 10:45 -33.99907 25.62357 480 ft 119 kts 48°
2026-04-26 10:45 -33.99238 25.62853 476 ft 108 kts 340°
2026-04-26 10:45 -33.98706 25.62517 361 ft 71 kts 307°
2026-04-26 10:46 -33.98381 25.62259 322 ft 43 kts 318°
2026-04-26 10:46 -33.98167 25.62210 259 ft 18 kts 338°
2026-04-26 10:46 -33.98091 25.62220 271 ft 12 kts
2026-04-26 10:46 -33.98028 25.62240 233 ft 7 kts 329°
2026-04-26 10:47 -33.98012 25.62241 200 ft 0 kts 328°